Submittal Forms
Current Contests
Recent Contests

Club Activity Tracker - Society of Midwest Contesters (from club selection on form)

Recent postings for the selected club or group are listed below. Other than the call used, all calls listed are only those associated with the club or group. Click on a call to see the details of the posting.
Status Key: new=new posting, update=update prior posting, move=change club/group, delete=delete prior posting.

Sort by   for past

TimestampCallContestClassPowerScoreStatus
2021-05-14 21:13:26WB9HFKKRC SSTSingle OpLP882new6426
2021-05-14 21:04:01N7USKRC SSTSingle OpHP3,159new6426
2021-05-14 03:31:07W9RENCCC SprintSingle OpLP2,537new6425
2021-05-14 03:25:52K9BGLNCCC SprintSingle OpLP1,485new6425
2021-05-13 20:44:26KJ9CCWopsTSingle OpHP225new6421
2021-05-13 16:23:34KS9WCWopsTSingle OpLP2,600new6421
2021-05-13 04:06:31KX3HCWopsTAcademy Single OpLP3,364new6421
2021-05-13 04:04:43N7USCWopsTSingle OpHP17,653new6421
2021-05-13 04:04:25K9WOCWopsTSingle OpHP7,280new6421
2021-05-13 04:03:02KG9XCWopsTSingle OpLP11,615new6421
 
2021-05-13 04:02:40NS0RCWopsTSingle OpHP16,129new6421
2021-05-13 04:02:01W9ILYCWopsTSingle OpHP15,295new6421
2021-05-13 04:01:56KY0QCWopsTSingle OpLP5,476new6421
2021-05-13 04:01:22W9RECWopsTSingle OpLP1,720new6421
2021-05-13 04:01:10WT9UCWopsTSingle OpLP15,456new6421
2021-05-13 03:53:54K0TQCWopsTSingle OpHP3,132new6421
2021-05-13 03:33:08KC9YLCWopsTSingle OpLP100new6421
2021-05-12 22:10:53K9WOCWopsTSingle OpHP676new6420
2021-05-12 20:06:47K9KMDCWopsTSingle OpQRP36new6420
2021-05-12 20:03:02W9NXMCWopsTSingle OpLP1,225new6420
 
2021-05-12 20:02:45N7USCWopsTSingle OpHP22,620new6420
2021-05-12 20:02:26KG9XCWopsTSingle OpLP10,296new6420
2021-05-12 20:02:23W9ILYCWopsTSingle OpHP10,500new6420
2021-05-12 20:02:09K0TQCWopsTSingle OpHP900new6420
2021-05-12 20:01:48K9DXCWopsTSingle OpLP5,476new6420
2021-05-12 20:01:20K9CTCWopsTSingle OpHP6,241new6420
2021-05-12 20:01:12WT9UCWopsTSingle OpLP13,806new6420
2021-05-12 19:28:31K9WXCWopsTSingle OpLP1,024new6420
2021-05-12 19:26:14KJ9CCWopsTSingle OpHP144new6420
2021-05-12 14:03:29KG9XCWopsTSingle OpLP12,769new6419
 
2021-05-12 14:03:28W9NXMCWopsTSingle OpLP2,401new6419
2021-05-12 14:02:26N7USCWopsTSingle OpHP24,649new6419
2021-05-12 14:02:01WT9UCWopsTSingle OpLP10,290new6419
2021-05-12 14:01:25W9ILYCWopsTSingle OpHP4,225new6419
2021-05-12 14:01:04WB8BZKCWopsTSingle OpHP4,900new6419
2021-05-12 13:56:02KJ9CCWopsTSingle OpHP400new6419
2021-05-12 13:51:15K9WXCWopsTSingle OpHP2,601new6419
2021-05-12 13:31:06KX3HCWopsTAcademy Single OpLP144new6419
2021-05-12 01:36:21NJ9QInQPSingle OpLP90new6395
2021-05-10 19:10:36W9ILYVolta RTTYSOSB/20HP46,983,104new6411
 
2021-05-10 01:06:11W9NXMKRC SSTSingle OpLP459new6415
2021-05-10 01:03:08N7USKRC SSTSingle OpLP2,275new6415
2021-05-10 01:01:31K9WXKRC SSTSingle OpHP1,980new6415
2021-05-10 00:15:19NJ9R50SprngSprntSingle OpLP18new6414
2021-05-09 22:15:12W9QLArQPSOMixedLP3,596new6413
2021-05-09 18:14:53KD9GYNewEngQPSingle OpLP1,320new6397
2021-05-09 18:11:47KD9GYDeQPSingle OpLP4new6396
2021-05-09 18:10:08KD9GYInQPSingle OpLP72new6395
2021-05-09 18:07:59KD9GY7QPSO(A)SSBLP504new6394
2021-05-09 17:59:00KD9GYArQPSOSSBLP615new6413
 
2021-05-09 14:09:52K9PW/R(K9PW)50SprngSprntRoverLP627new6414
2021-05-09 11:45:13WT9QArQPSOCWLP2,150new6413
2021-05-09 11:40:42AI9TVolta RTTYSOABHP12,262,206new6411
2021-05-09 03:49:54NT9E50SprngSprntSingle OpLP312new6414
2021-05-09 03:31:51WB8BZK50SprngSprntSingle OpHP684new6414
2021-05-09 03:11:35KO9A50SprngSprntSingle OpLP2,964new6414
2021-05-09 03:10:02K0PG50SprngSprntSingle OpLP210new6414
2021-05-09 02:34:22WA9PNDArQPSOSSBLP252new6413
2021-05-09 02:21:57WB9HFKArQPSOMixedLP7,380new6413
2021-05-09 02:21:03K9ELFArQPSOSSBLP9new6413
 
2021-05-09 02:05:56K9CWArQPSOCWLP5,632new6413
2021-05-09 02:00:04K9NNArQPSOMixedLP833new6413
2021-05-09 01:54:44KJ9BArQPSOSSBHP100new6413
2021-05-09 01:05:33KY0QArQPSOCWLP160new6413
2021-05-08 16:02:46K9ELF7QPSOSSBLP32new6394
2021-05-08 15:58:10K9ELFNewEngQPSingle OpLP81new6397
2021-05-07 21:05:30KC9YLKRC SSTSingle OpLP90new6410
2021-05-07 21:03:33N7USKRC SSTSingle OpLP1,972new6410
2021-05-07 06:21:48K9UIYFlQPSOABCWQRP32,400new6375
2021-05-07 04:23:40K9UIYGaQPSingle OpCWLP39,200new6336
 
2021-05-07 03:32:20W9RENCCC SprintSingle OpLP2,184new6409
2021-05-07 03:20:26K9BGLNCCC SprintSingle OpLP2,009new6409
2021-05-06 14:46:55N9DRInQPSingle OpHP17,840new6395
2021-05-06 14:02:51N9LBCWopsTAcademy Single OpLP256new6404
2021-05-06 04:13:21K9DXCWopsTSingle OpLP15,625new6404
2021-05-06 04:09:28KX3HCWopsTAcademy Single OpLP1,406new6404
2021-05-06 04:04:21KG9XCWopsTSingle OpLP14,384new6404
2021-05-06 04:03:49N7USCWopsTSingle OpHP18,602new6404
2021-05-06 04:02:24KC9YLCWopsTSingle OpLP729new6404
2021-05-06 04:01:56KD9OINCWopsTSingle OpLP81new6404
 
2021-05-06 04:00:57W9ILYCWopsTSingle OpHP13,038new6404
2021-05-06 03:59:43W9RECWopsTSingle OpLP1,122new6404
2021-05-06 03:59:07K0TQCWopsTSingle OpHP2,499new6404
2021-05-06 03:17:01KJ9CCWopsTSingle OpLP225new6404
2021-05-06 03:14:51WT9UCWopsTSingle OpLP100new6404
2021-05-05 20:06:19K9KMDCWopsTSingle OpQRP400new6403
2021-05-05 20:05:37KG9XCWopsTSingle OpLP11,663new6403
2021-05-05 20:02:59N7USCWopsTSingle OpHP24,600new6403
2021-05-05 20:02:23WT9UCWopsTSingle OpLP7,917new6403
2021-05-05 20:00:59K9DXCWopsTSingle OpLP6,889new6403
 
2021-05-05 20:00:50W9ILYCWopsTSingle OpHP15,876new6403
2021-05-05 19:42:48KJ9CCWopsTSingle OpHP225new6403
2021-05-05 19:16:16K9WXCWopsTSingle OpLP144new6403
2021-05-05 14:28:20K9DXCWopsTSingle OpLP5,475new6402
2021-05-05 14:10:26KJ9CCWopsTSingle OpHP11,550new6402
2021-05-05 14:05:10KG9XCWopsTSingle OpLP14,161new6402
2021-05-05 14:04:17N7USCWopsTSingle OpHP28,900new6402
2021-05-05 14:03:48W9NXMCWopsTSingle OpLP1,332new6402
2021-05-05 14:03:15KK0UCWopsTSingle OpLP3,720new6402
2021-05-05 14:01:43W9ILYCWopsTSingle OpLP4,624new6402
 
2021-05-05 14:00:48K9WXCWopsTSingle OpLP16,641new6402
2021-05-05 14:00:22WB8BZKCWopsTSingle OpHP7,225new6402
2021-05-04 01:42:49KJ9C/M(KJ9C)7QPSO MobileMixedLP1,617move6394
2021-05-04 01:36:57K9NNNewEngQPSingle OpLP18new6397
2021-05-04 01:34:58K9NN7QPSOCWLP75new6394
2021-05-03 22:29:52K9NNInQPSingle OpLP98new6395
2021-05-03 22:28:01K9NNDeQPSingle OpLP8new6396
2021-05-03 22:10:00KD9OINNewEngQPSingle OpLP442new6397
2021-05-03 22:07:13KD9OIN7QPSOCWLP312new6394
2021-05-03 21:38:01NV9LInQPM/SHP6,318new6395
 (WB9Z,@NV9L)
 
2021-05-03 21:37:19NV9LNewEngQPM/SHP48,704new6397
 (WB9Z,@NV9L)
2021-05-03 21:35:34NV9LDeQPM/SHP3,000new6396
 (WB9Z,@NV9L)
2021-05-03 21:34:40NV9L7QPM/SHP100,590new6394
 (WB9Z,@NV9L)
2021-05-03 20:41:25WD8DSBInQPSingle OpLP2,440new6395
2021-05-03 19:30:10N2BJInQPSingle OpHP8new6395
2021-05-03 19:14:09WA9PNDNewEngQPSingle OpLP1,333new6397
2021-05-03 18:22:48W9ILYARISO RTTYHP17,860new6393
2021-05-03 15:08:51W9QLNewEngQPSingle OpLP24,662new6397
2021-05-03 15:04:46W9QLInQPSingle OpLP4,539new6395
2021-05-03 15:01:21W9QLDeQPSingle OpLP2,660new6396
 
2021-05-03 14:52:39W9QL7QPSO(A)MixedLP23,562new6394
2021-05-03 14:40:28KB9S7QPSO(A)CWLP5,304new6394
2021-05-03 14:38:10KB9SNewEngQPSingle OpLP2,340new6397
2021-05-03 14:36:23KB9SDeQPSingle OpLP80new6396
2021-05-03 14:34:45KB9SInQPSingle OpLP510new6395
2021-05-03 14:08:59K9WXInQPMobileLP110,224move6395
 (@K9WX)
2021-05-03 12:28:24K9PW/R(K9PW)MWaveSprngSprntRoverLP1,189new6392
2021-05-03 02:05:26K9CWNewEngQPSingle OpLP20,022new6397
2021-05-03 02:01:02K9CWDeQPSingle OpLP720new6396
2021-05-03 01:18:28N9VPVNewEngQPSingle OpLP50update6397
 
2021-05-03 01:07:15W9NXMKRC SSTSingle OpLP368new6398
2021-05-03 01:05:35N7USKRC SSTSingle OpLP1,458new6398
2021-05-03 01:01:16WZ0WKRC SSTSingle OpQRP182new6398
2021-05-02 23:53:53KY0Q7QPSO(A)CWLP21,960update6394
2021-05-02 23:23:33KY0QNewEngQPSingle OpLP13,680new6397
2021-05-02 23:22:23KY0QDeQPSingle OpLP640new6396
2021-05-02 23:21:26KY0QInQPSingle OpLP1,176new6395
2021-05-02 22:17:26WA9PNDInQPSingle OpLP121new6395
2021-05-02 22:15:59WA9PND7QPSOSSBLP3,038new6394
2021-05-02 20:05:35N9LB7QPSOCWHP6,642new6394
 
2021-05-02 19:53:35K9WXNewEngQPSingle OpLP2,064new6397
2021-05-02 19:52:44K9WXDeQPSingle OpLP80new6396
2021-05-02 19:52:04K9WX7QPSOMixedLP7,632new6394
2021-05-02 18:12:18W7KAMNewEngQPSingle OpLP1,040new6397
2021-05-02 17:51:18W7KAMDeQPSingle OpLP290new6396
2021-05-02 16:43:45K9ELFDeQPSingle OpLP130new6396
2021-05-02 15:48:20K9IU(WB9TLH,K7JOE,K9BMR,KD9GTU,KB9YOJ,WB0SND,KC9ZMA,N9OIU,N9VKU,KD9DAB)InQPOneCnty PortableHP121,336new6395
2021-05-02 15:34:58W9IZ7QPSO(A)MixedLP1,650new6394
2021-05-02 14:59:01W9DZInQPSingle OpHP44,067new6395
2021-05-02 14:47:06N7US7QPSO(A)CWLP38,352new6394
 
2021-05-02 13:03:48N9TFInQPSingle OpLP1,056new6395
2021-05-02 13:00:48K9CWInQPSingle OpLP216new6395
2021-05-02 12:59:09K9CW7QPSO(A)CWLP28,329new6394
2021-05-02 12:57:11W7KAM7QPSOSSBLP1,144new6394
2021-05-02 12:37:44W7KAMInQPSingle OpLP100new6395
2021-05-02 12:08:15AI9TARISO RTTYHP31,548new6393
2021-05-02 07:00:27NX9Y7QPSOCWLP1,260new6394
2021-05-02 03:52:06KJ9BInQPOneCnty PortableLP2,220new6395
2021-05-02 03:51:06W9REFlQPSOABCWLP5,566new6375
2021-05-02 03:50:48KJ9BNewEngQPSingle OpLP64new6397
 
2021-05-02 03:50:07W9IZInQPSingle OpLP16,740new6395
2021-05-02 03:49:42KJ9BDeQPSingle OpLP20new6396
2021-05-02 03:48:47KJ9B7QPSOSSBLP180new6394
2021-05-02 03:38:31W9REInQPSingle OpLP16,200new6395
2021-05-02 03:19:41KC9EOQInQPSingle OpHP588new6395
2021-05-02 03:13:36KT9LInQPSingle OpHP16,716new6395
2021-05-02 03:06:45WT9UInQPSingle OpHP252,407new6395
2021-05-02 02:50:29N9SE(N9XLV)InQPOneCnty PortableLP139,178new6395
2021-05-02 02:38:36WB8BZKInQPSingle OpHP8,378new6395
2021-05-02 02:25:10K9DURInQPSingle OpHP26,730new6395
 
2021-05-01 12:31:44W9XTFlQPSOAB(A)MixedLP39,618new6375
2021-05-01 02:16:34W8RZCWopsTSingle OpLP1,024new6385
2021-05-01 02:14:37W8RZCWopsTSingle OpLP169new6384
2021-04-30 21:02:44N7USKRC SSTSingle OpLP1,950new6391
2021-04-30 03:43:18W9RENCCC SprintSingle OpLP2,214new6390
2021-04-30 03:22:02K9BGLNCCC SprintSingle OpLP1,785new6390
2021-04-29 04:06:03N7USCWopsTSingle OpHP21,600new6386
2021-04-29 04:03:26KC9YLCWopsTSingle OpLP483new6386
2021-04-29 04:03:14KG9XCWopsTSingle OpLP11,856new6386
2021-04-29 04:03:05KX3HCWopsTAcademy Single OpLP2,115new6386
 
2021-04-29 04:02:26K9WOCWopsTSingle OpHP8,256new6386
2021-04-29 04:02:25K9DXCWopsTSingle OpLP18,769new6386
2021-04-29 04:02:22WT9UCWopsTSingle OpLP15,576new6386
2021-04-29 04:01:26KY0QCWopsTSingle OpLP4,692new6386
2021-04-29 04:01:08W9ILYCWopsTSingle OpHP14,732new6386
2021-04-29 03:44:38K0TQCWopsTSingle OpHP1,295new6386
2021-04-29 03:17:49KJ9CCWopsTSingle OpLP441new6386
2021-04-28 21:58:38WT9UCWopsTSingle OpLP121new6385
2021-04-28 20:30:45W9ILYCWopsTSingle OpHP5,041new6385
2021-04-28 20:05:23K9DXCWopsTSingle OpLP6,241new6385
 
2021-04-28 20:03:52W9NXMCWopsTSingle OpLP1,521new6385
2021-04-28 20:02:49K9CTCWopsTSingle OpHP11,770new6385
2021-04-28 20:02:47N7USCWopsTSingle OpHP20,860new6385
2021-04-28 20:02:19K9WOCWopsTSingle OpHP6,391new6385
2021-04-28 20:02:13KG9XCWopsTSingle OpLP9,024new6385
2021-04-28 19:46:21KJ9CCWopsTSingle OpHP1,600new6385
2021-04-28 14:04:51KG9XCWopsTSingle OpLP10,000new6384
2021-04-28 14:03:42K9DXCWopsTSingle OpLP5,256new6384
2021-04-28 14:03:20N7USCWopsTSingle OpHP20,736new6384
2021-04-28 14:02:20W9ILYCWopsTSingle OpLP5,852new6384
 
2021-04-28 14:02:19KC9YLCWopsTSingle OpLP144new6384
2021-04-28 14:01:49W9NXMCWopsTSingle OpLP1,848new6384
2021-04-28 14:01:27WB8BZKCWopsTSingle OpHP3,721new6384
2021-04-28 13:33:49KJ9CCWopsTSingle OpHP2,809new6384
2021-04-27 19:06:46W9ILYFlQPSOAB(A)CWLP7,622new6375
2021-04-27 18:58:13W9ILYBARTG 75Single OpHP816new6374
2021-04-27 18:50:04W9ILYSPDX RTTYSOABHP141,220new6372
2021-04-27 00:12:34WT9QFlQPSOAB(A)CWLP32,832new6375
2021-04-27 00:02:08NJ9QOnQPSO MixedLP135new5642
2021-04-26 20:21:40W9SAUKRC SSTSingle OpQRP4new6380
 
2021-04-26 19:32:09NJ9QFlQPSOABMixedLP7,296new6375
2021-04-26 18:57:02K9WOFlQPSOAB(A)MixedHP8,418new6375
2021-04-26 17:42:02KD9GYFlQPSOABSSBLP2,205new6375
2021-04-26 15:59:03W9QLFlQPSOAB(A)MixedLP42,328new6375
2021-04-26 13:51:59WB9HFKKRC SSTSingle OpLP989new6380
2021-04-26 13:48:18WB9HFKFlQPSOAB(A)MixedLP55,338new6375
2021-04-26 12:54:06W9NXMKRC SSTSingle OpLP468new6380
2021-04-26 04:01:23KG9XKRC SSTSingle OpLP1,620update6380
2021-04-26 03:57:44K9ELFFlQPSOABSSBLP84update6375
2021-04-26 03:38:24W9DZFlQPSOABMixedHP10,912new6375
 
2021-04-26 02:12:54KC9YLKRC SSTSingle OpLP90new6380
2021-04-26 01:57:02N7USKRC SSTSingle OpHP1,794new6380
2021-04-26 01:54:16KJ9BFlQPSOABSSBHP2,607new6375
2021-04-26 01:46:53K9CWFlQPSOAB(A)CWLP92,460new6375
2021-04-26 01:15:16W9NXMFlQPSOAB(A)CWLP2,940new6375
2021-04-26 00:42:29WA9PNDFlQPSOAB(A)SSBLP5,040new6375
2021-04-26 00:35:31N9VPVFlQPSOAB(A)MixedLP374new6375
2021-04-25 23:57:00KD9OINFlQPSOABMixedLP8,640new6375
2021-04-25 23:56:48W7KAMFlQPSOABSSBLP60new6375
2021-04-25 22:29:36KX3HFlQPSOAB(A)MixedLP6,204new6375
 
2021-04-25 22:20:11KT9LFlQPSOAB(A)CWHP22,800new6375
2021-04-25 22:15:22K9CTFlQPSOAB(A)CWLP169,376new6375
2021-04-25 22:05:18NV9LFlQPM/SMixedLP198,072new6375
 (NV9L,@WB9Z)
2021-04-25 22:01:15K9NNFlQPSOAB(A)CWLP11,832update6375
2021-04-25 21:47:52K9WXFlQPSOABMixedLP4,536new6375
2021-04-25 21:15:48AI9TBARTG 75Single OpHP1,102new6374
2021-04-25 17:07:14N7USFlQPSOAB(A)CWHP16,500new6375
2021-04-25 15:11:03WB8BZKSPDX RTTYSOABHP1,152new6372
2021-04-25 12:59:55NJ9RSPDX RTTYSOABHP208new6372
2021-04-25 12:07:44AI9TSPDX RTTYSOABHP92,680new6372
 
2021-04-24 14:06:34K9CTCWopsTSingle OpHP8,008new6365
2021-04-23 21:22:17WB9HFKKRC SSTSingle OpLP392new6371
2021-04-23 21:02:47N7USKRC SSTSingle OpHP2,048new6371
2021-04-23 03:38:56W9RENCCC SprintSingle OpLP2,520new6370
2021-04-22 14:54:44K9PW/R(K9PW)432SprngSprntRoverLP1,482new6367
2021-04-22 12:14:27K9GYCQMM DXSOABLP4,876new6356
2021-04-22 04:13:48K9WOCWopsTSingle OpLP4,096new6366
2021-04-22 04:11:49KC9YLCWopsTSingle OpLP196new6366
2021-04-22 04:09:47KO9A432SprngSprntSingle OpLP208new6367
2021-04-22 04:08:54W9RECWopsTSingle OpLP4,320new6366
 
2021-04-22 04:05:03K9DXCWopsTSingle OpLP15,876new6366
2021-04-22 04:04:46N7USCWopsTSingle OpHP23,200new6366
2021-04-22 04:04:44KG9XCWopsTSingle OpLP14,986new6366
2021-04-22 04:02:48KK0UCWopsTSingle OpLP2,500new6366
2021-04-22 04:02:09K0TQCWopsTSingle OpHP2,250new6366
2021-04-22 04:00:54W9ILYCWopsTSingle OpHP5,025new6366
2021-04-22 03:47:33W9SZ432SprngSprntSingle OpLP15new6367
2021-04-22 02:04:22WB8BZK/R(@WB8BZK)432SprngSprntRoverLP384new6367
2021-04-21 20:04:06K9DXCWopsTSingle OpLP3,078new6365
2021-04-21 20:04:02WT9UCWopsTSingle OpLP9,801new6365
 
2021-04-21 20:03:07KG9XCWopsTSingle OpLP13,104new6365
2021-04-21 20:02:19N7USCWopsTSingle OpHP20,306new6365
2021-04-21 20:01:24W9NXMCWopsTSingle OpLP2,601new6365
2021-04-21 20:01:05W9ILYCWopsTSingle OpHP10,914new6365
2021-04-21 19:26:18K9WXCWopsTSingle OpLP225new6365
2021-04-21 17:48:03K9WXCWopsTSingle OpLP2,025new6364
2021-04-21 14:42:38W9RECWopsTSingle OpLP2,021new6364
2021-04-21 14:11:33W9ILYCWopsTSingle OpHP10,609new6364
2021-04-21 14:06:33K9DXCWopsTSingle OpLP4,096new6364
2021-04-21 14:05:46WT9UCWopsTSingle OpLP4,488new6364
 
2021-04-21 14:03:11N7USCWopsTSingle OpHP26,896new6364
2021-04-21 14:02:52KG9XCWopsTSingle OpLP18,769new6364
2021-04-21 14:02:44WB8BZKCWopsTSingle OpHP4,624new6364
2021-04-21 14:02:27KX3HCWopsTAcademy Single OpLP2,401new6364
2021-04-21 14:01:59W9NXMCWopsTSingle OpLP3,420new6364
2021-04-21 14:01:35KY0QCWopsTSingle OpLP3,080new6364
2021-04-20 02:36:15W8LVNMiQPSingle OpLP208new6357
2021-04-19 20:37:43WB9TFFCQMM DXYLHP8,512new6356
2021-04-19 16:55:58W9ILYCQMM DXSOABHP10,224new6356
2021-04-19 16:09:19K9CTMiQPM/SHP2,632new6357
 (@K9CT)
 
2021-04-19 13:42:13AI9TCQMM DXSOABHP68,355new6356
2021-04-19 13:25:54KC9YLCQMM DXYLLP1,494new6356
2021-04-19 13:10:05N2BJCQMM DXSOABHP66,732new6356
2021-04-19 02:28:17KY0QMiQPM/SLP720update6357
 (@KY0Q)
2021-04-19 02:27:46KJ9BMiQPSingle OpHP1,100new6357
2021-04-19 01:49:45K9ELFOnQPSO SSBLP16update5642
2021-04-19 01:42:16W9NXMKRC SSTSingle OpLP840new6358
2021-04-19 01:06:48N7USKRC SSTSingle OpHP3,150new6358
2021-04-19 01:03:58K9WXKRC SSTSingle OpLP1,836new6358
2021-04-19 00:29:57K9DXCQMM DXSOABLP24,165new6356
 
2021-04-18 23:01:28KY0QOnQPSO CWLP840new5642
2021-04-18 21:23:44WB9HFKOnQPSO MixedLP12,144new5642
2021-04-18 21:20:41WB9HFKMiQPSingle OpLP10,010new6357
2021-04-18 21:00:09KJ9BOnQPSO SSBHP2,117new5642
2021-04-18 20:56:11N0AXCQMM DXSOABHP86,718new6356
2021-04-18 20:26:35K9NNOnQPSO MixedLP1,870new5642
2021-04-18 20:07:26WA9PNDOnQPSO SSBLP720new5642
2021-04-18 19:33:57W9QLOnQPSO MixedLP6,426new5642
2021-04-18 19:33:08W9NXMOnQPSO CWLP300new5642
2021-04-18 19:29:38W9QLMiQPSingle OpLP3,526new6357
 
2021-04-18 19:28:33KD9GYMiQPSingle OpLP20new6357
2021-04-18 19:24:43KD9GYOnQPSO SSBLP48new5642
2021-04-18 18:22:44W7KAMOnQPSO SSBLP210new5642
2021-04-18 18:04:08K9CWOnQPSO CWLP9,936new5642
2021-04-18 17:15:32W9DZMiQPSingle OpHP950new6357
2021-04-18 15:27:56WA9PNDMiQPM/SLP437new6357
 (@WA9PND)
2021-04-18 14:15:23K9CWMiQPSingle OpLP2,600new6357
2021-04-18 13:54:14K9NNMiQPSingle OpLP24new6357
2021-04-18 12:21:37W7KAMMiQPSingle OpLP100new6357
2021-04-18 02:11:15K9ELFMiQPSingle OpLP90new6357
 
2021-04-17 01:54:29KD9OINNMQPSingle OpLP1,080new6335
2021-04-17 01:51:52KD9OINGaQPSingle OpCWLP140new6336
2021-04-16 21:03:40W9CWO(@KG9X)KRC SSTSingle OpLP1,504new6351
2021-04-16 21:03:25KC9YLKRC SSTSingle OpLP140new6351
2021-04-16 21:03:18K9DXKRC SSTSingle OpLP870new6351
2021-04-16 21:01:54N7USKRC SSTSingle OpHP1,612new6351
2021-04-16 03:33:16K9BGLNCCC SprintSingle OpLP1,290new6350
2021-04-16 03:32:55W9RENCCC SprintSingle OpLP2,204new6350
2021-04-15 04:09:55K9DXCWopsTSingle OpLP7,735new6347
2021-04-15 04:07:14N7USCWopsTSingle OpHP19,740new6347
 
2021-04-15 04:02:25W9RECWopsTSingle OpLP3,960new6347
2021-04-15 04:00:58W9ILYCWopsTSingle OpHP12,971new6347
2021-04-15 04:00:50WT9UCWopsTSingle OpLP17,010new6347
2021-04-15 03:59:16K0TQCWopsTSingle OpHP5,776new6347
2021-04-15 03:54:06KC9YLCWopsTSingle OpLP169new6347
2021-04-15 03:32:39KK0UCWopsTSingle OpLP625new